Time,TemperatureF,DewpointF,PressureIn,WindDirection,WindDirectionDegrees,WindSpeedMPH,WindSpeedGustMPH,Humidity,HourlyPrecipIn,Conditions,Clouds,dailyrainin,SoftwareType,DateUTC
2013-09-12 00:01:00,74.2,67.6,29.90,West,279,0.0,0.0,80,0.00,,,0.00,WeatherCatV1.10B1784,2013-09-12 04:01:00,
2013-09-12 00:06:00,74.1,67.5,29.90,West,279,0.0,0.0,80,0.00,,,0.00,WeatherCatV1.10B1784,2013-09-12 04:06:00,
2013-09-12 00:11:00,74.0,67.1,29.89,West,279,0.0,0.0,79,0.00,,,0.00,WeatherCatV1.10B1784,2013-09-12 04:11:00,
2013-09-12 00:16:00,74.0,67.4,29.89,West,279,0.0,1.0,80,0.00,,,0.00,WeatherCatV1.10B1784,2013-09-12 04:16:00,
2013-09-12 00:21:00,73.8,67.6,29.89,SSE,149,0.0,3.0,81,0.00,,,0.00,WeatherCatV1.10B1784,2013-09-12 04:21:00,
2013-09-12 00:26:00,73.6,67.4,29.89,SSE,149,0.0,0.0,81,0.00,,,0.00,WeatherCatV1.10B1784,2013-09-12 04:26:00,
2013-09-12 00:31:00,73.4,67.6,29.88,SSE,149,0.0,0.0,82,0.00,,,0.00,WeatherCatV1.10B1784,2013-09-12 04:31:00,
2013-09-12 00:36:00,73.3,67.8,29.88,SSE,149,0.0,0.0,83,0.00,,,0.00,WeatherCatV1.10B1784,2013-09-12 04:36:00,
2013-09-12 00:41:00,73.1,67.6,29.88,SSE,149,0.0,0.0,83,0.00,,,0.00,WeatherCatV1.10B1784,2013-09-12 04:41:00,
2013-09-12 00:46:00,72.9,67.4,29.88,SSE,149,0.0,0.0,83,0.00,,,0.00,WeatherCatV1.10B1784,2013-09-12 04:46:00,
2013-09-12 00:51:00,72.8,67.7,29.88,SSE,149,0.0,1.0,84,0.00,,,0.00,WeatherCatV1.10B1784,2013-09-12 04:51:00,
2013-09-12 00:56:00,72.6,67.5,29.88,SSE,149,0.0,1.0,84,0.00,,,0.00,WeatherCatV1.10B1784,2013-09-12 04:56:00,
2013-09-12 01:01:00,72.4,67.6,29.87,SSE,155,0.0,0.0,85,0.00,,,0.00,WeatherCatV1.10B1784,2013-09-12 05:01:00,
2013-09-12 01:06:00,72.2,67.4,29.87,SE,144,0.0,1.0,85,0.00,,,0.00,WeatherCatV1.10B1784,2013-09-12 05:06:00,
2013-09-12 01:11:00,72.1,67.3,29.87,WSW,257,0.0,4.0,85,0.00,,,0.00,WeatherCatV1.10B1784,2013-09-12 05:11:00,
2013-09-12 01:16:00,72.1,67.3,29.87,WSW,257,0.0,0.0,85,0.00,,,0.00,WeatherCatV1.10B1784,2013-09-12 05:16:00,
2013-09-12 01:21:00,72.0,67.2,29.86,WSW,245,2.0,3.0,85,0.00,,,0.00,WeatherCatV1.10B1784,2013-09-12 05:21:00,
2013-09-12 01:26:00,71.9,67.1,29.86,WSW,246,0.0,3.0,85,0.00,,,0.00,WeatherCatV1.10B1784,2013-09-12 05:26:00,
2013-09-12 01:31:00,71.8,67.0,29.86,WSW,249,0.0,1.0,85,0.00,,,0.00,WeatherCatV1.10B1784,2013-09-12 05:31:00,
2013-09-12 01:36:00,71.8,67.0,29.86,WSW,248,0.0,1.0,85,0.00,,,0.00,WeatherCatV1.10B1784,2013-09-12 05:36:00,
2013-09-12 01:41:00,71.8,67.0,29.86,WSW,249,0.0,0.0,85,0.00,,,0.00,WeatherCatV1.10B1784,2013-09-12 05:41:00,
2013-09-12 01:46:00,71.7,66.9,29.85,WSW,245,0.0,4.0,85,0.00,,,0.00,WeatherCatV1.10B1784,2013-09-12 05:46:00,
2013-09-12 01:51:00,71.7,66.9,29.86,WSW,244,0.0,0.0,85,0.00,,,0.00,WeatherCatV1.10B1784,2013-09-12 05:51:00,
2013-09-12 01:56:00,71.5,66.7,29.86,WSW,244,3.0,3.0,85,0.00,,,0.00,WeatherCatV1.10B1784,2013-09-12 05:56:00,
2013-09-12 02:01:00,71.5,66.7,29.86,SW,214,0.0,1.0,85,0.00,,,0.00,WeatherCatV1.10B1784,2013-09-12 06:01:00,
2013-09-12 02:06:00,71.6,66.5,29.86,WSW,240,0.0,6.0,84,0.00,,,0.00,WeatherCatV1.10B1784,2013-09-12 06:06:00,
2013-09-12 02:11:00,71.6,66.5,29.86,SW,230,2.0,4.0,84,0.00,,,0.00,WeatherCatV1.10B1784,2013-09-12 06:11:00,
2013-09-12 02:16:00,71.6,66.5,29.86,WSW,249,4.0,5.0,84,0.00,,,0.00,WeatherCatV1.10B1784,2013-09-12 06:16:00,
2013-09-12 02:21:00,71.6,66.5,29.86,SW,227,5.0,8.0,84,0.00,,,0.00,WeatherCatV1.10B1784,2013-09-12 06:21:00,
2013-09-12 02:26:00,71.6,66.5,29.86,SW,232,3.0,5.0,84,0.00,,,0.00,WeatherCatV1.10B1784,2013-09-12 06:26:00,
2013-09-12 02:31:00,71.8,66.3,29.86,WSW,239,3.0,12.0,83,0.00,,,0.00,WeatherCatV1.10B1784,2013-09-12 06:31:00,
2013-09-12 02:36:00,72.0,66.2,29.86,WSW,248,5.0,9.0,82,0.00,,,0.00,WeatherCatV1.10B1784,2013-09-12 06:36:00,
2013-09-12 02:41:00,72.1,66.3,29.86,WSW,245,1.0,12.0,82,0.00,,,0.00,WeatherCatV1.10B1784,2013-09-12 06:41:00,
2013-09-12 02:46:00,72.1,66.3,29.86,SSW,194,5.0,7.0,82,0.00,,,0.00,WeatherCatV1.10B1784,2013-09-12 06:46:00,
2013-09-12 02:51:00,72.0,66.2,29.86,SW,234,0.0,9.0,82,0.00,,,0.00,WeatherCatV1.10B1784,2013-09-12 06:51:00,
2013-09-12 02:56:00,71.9,66.1,29.86,WSW,243,4.0,7.0,82,0.00,,,0.00,WeatherCatV1.10B1784,2013-09-12 06:56:00,
2013-09-12 03:01:00,71.9,66.1,29.87,WSW,242,0.0,6.0,82,0.00,,,0.00,WeatherCatV1.10B1784,2013-09-12 07:01:00,
2013-09-12 03:06:00,71.9,66.1,29.86,SW,227,2.0,7.0,82,0.00,,,0.00,WeatherCatV1.10B1784,2013-09-12 07:06:00,
2013-09-12 03:11:00,71.8,66.0,29.86,SW,231,2.0,5.0,82,0.00,,,0.00,WeatherCatV1.10B1784,2013-09-12 07:11:00,
2013-09-12 03:16:00,71.8,66.0,29.86,SW,229,4.0,4.0,82,0.00,,,0.00,WeatherCatV1.10B1784,2013-09-12 07:16:00,
2013-09-12 03:21:00,71.7,65.9,29.86,SW,233,0.0,4.0,82,0.00,,,0.00,WeatherCatV1.10B1784,2013-09-12 07:21:00,
2013-09-12 03:26:00,71.8,66.0,29.86,SW,234,0.0,6.0,82,0.00,,,0.00,WeatherCatV1.10B1784,2013-09-12 07:26:00,
2013-09-12 03:31:00,72.0,66.2,29.86,SW,231,1.0,4.0,82,0.00,,,0.00,WeatherCatV1.10B1784,2013-09-12 07:31:00,
2013-09-12 03:36:00,72.1,66.3,29.86,WSW,239,2.0,8.0,82,0.00,,,0.00,WeatherCatV1.10B1784,2013-09-12 07:36:00,
2013-09-12 03:41:00,72.2,66.4,29.86,WSW,240,2.0,6.0,82,0.00,,,0.00,WeatherCatV1.10B1784,2013-09-12 07:41:00,
2013-09-12 03:46:00,72.2,66.0,29.86,WSW,239,4.0,5.0,81,0.00,,,0.00,WeatherCatV1.10B1784,2013-09-12 07:46:00,
2013-09-12 03:51:00,72.3,66.1,29.86,WSW,239,0.0,4.0,81,0.00,,,0.00,WeatherCatV1.10B1784,2013-09-12 07:51:00,
2013-09-12 03:56:00,72.2,66.4,29.86,WSW,240,0.0,3.0,82,0.00,,,0.00,WeatherCatV1.10B1784,2013-09-12 07:56:00,
2013-09-12 04:01:00,72.2,66.4,29.87,WSW,240,0.0,6.0,82,0.00,,,0.00,WeatherCatV1.10B1784,2013-09-12 08:01:00,
2013-09-12 04:06:00,72.2,66.4,29.87,WSW,239,1.0,1.0,82,0.00,,,0.00,WeatherCatV1.10B1784,2013-09-12 08:06:00,
2013-09-12 04:11:00,72.2,66.4,29.86,WSW,238,0.0,5.0,82,0.00,,,0.00,WeatherCatV1.10B1784,2013-09-12 08:11:00,
2013-09-12 04:16:00,72.0,66.2,29.86,WSW,240,0.0,7.0,82,0.00,,,0.00,WeatherCatV1.10B1784,2013-09-12 08:16:00,
2013-09-12 04:21:00,71.9,66.4,29.86,WSW,238,0.0,4.0,83,0.00,,,0.00,WeatherCatV1.10B1784,2013-09-12 08:21:00,
2013-09-12 04:26:00,71.9,66.4,29.86,WSW,238,0.0,0.0,83,0.00,,,0.00,WeatherCatV1.10B1784,2013-09-12 08:26:00,
2013-09-12 04:31:00,71.8,66.7,29.86,WSW,240,0.0,7.0,84,0.00,,,0.00,WeatherCatV1.10B1784,2013-09-12 08:31:00,
2013-09-12 04:36:00,71.8,66.7,29.86,WSW,240,2.0,5.0,84,0.00,,,0.00,WeatherCatV1.10B1784,2013-09-12 08:36:00,
2013-09-12 04:41:00,71.9,66.8,29.86,SW,236,1.0,7.0,84,0.00,,,0.00,WeatherCatV1.10B1784,2013-09-12 08:41:00,
2013-09-12 04:46:00,72.0,66.9,29.86,SW,236,4.0,5.0,84,0.00,,,0.00,WeatherCatV1.10B1784,2013-09-12 08:46:00,
2013-09-12 04:51:00,71.9,66.8,29.86,SW,236,0.0,0.0,84,0.00,,,0.00,WeatherCatV1.10B1784,2013-09-12 08:51:00,
2013-09-12 04:56:00,71.8,66.7,29.86,SW,236,0.0,3.0,84,0.00,,,0.00,WeatherCatV1.10B1784,2013-09-12 08:56:00,
2013-09-12 05:01:00,71.7,66.9,29.86,SW,236,0.0,3.0,85,0.00,,,0.00,WeatherCatV1.10B1784,2013-09-12 09:01:00,
2013-09-12 05:06:00,71.7,66.9,29.86,SW,236,0.0,6.0,85,0.00,,,0.00,WeatherCatV1.10B1784,2013-09-12 09:06:00,
2013-09-12 05:11:00,71.7,66.9,29.86,SW,236,4.0,4.0,85,0.00,,,0.00,WeatherCatV1.10B1784,2013-09-12 09:11:00,
2013-09-12 05:16:00,71.7,66.9,29.86,SW,236,0.0,1.0,85,0.00,,,0.00,WeatherCatV1.10B1784,2013-09-12 09:16:00,
2013-09-12 05:21:00,71.7,66.6,29.85,SW,236,0.0,1.0,84,0.00,,,0.00,WeatherCatV1.10B1784,2013-09-12 09:21:00,
2013-09-12 05:26:00,71.8,66.7,29.85,WSW,238,2.0,4.0,84,0.00,,,0.00,WeatherCatV1.10B1784,2013-09-12 09:26:00,
2013-09-12 05:31:00,72.1,67.0,29.85,WSW,238,0.0,3.0,84,0.00,,,0.00,WeatherCatV1.10B1784,2013-09-12 09:31:00,
2013-09-12 05:36:00,72.1,67.0,29.85,WSW,238,0.0,2.0,84,0.00,,,0.00,WeatherCatV1.10B1784,2013-09-12 09:36:00,
2013-09-12 05:41:00,72.2,67.1,29.85,WSW,238,0.0,4.0,84,0.00,,,0.00,WeatherCatV1.10B1784,2013-09-12 09:41:00,
2013-09-12 05:46:00,72.2,67.1,29.85,WSW,238,0.0,4.0,84,0.00,,,0.00,WeatherCatV1.10B1784,2013-09-12 09:46:00,
2013-09-12 05:51:00,72.1,67.0,29.85,WSW,238,0.0,0.0,84,0.00,,,0.00,WeatherCatV1.10B1784,2013-09-12 09:51:00,
2013-09-12 05:56:00,72.1,67.0,29.85,WSW,238,2.0,3.0,84,0.00,,,0.00,WeatherCatV1.10B1784,2013-09-12 09:56:00,
2013-09-12 06:01:00,72.0,66.9,29.85,WSW,238,0.0,0.0,84,0.00,,,0.00,WeatherCatV1.10B1784,2013-09-12 10:01:00,
2013-09-12 06:06:00,71.9,67.1,29.85,WSW,238,0.0,0.0,85,0.00,,,0.00,WeatherCatV1.10B1784,2013-09-12 10:06:00,
2013-09-12 06:11:00,71.8,67.0,29.84,WSW,238,0.0,3.0,85,0.00,,,0.00,WeatherCatV1.10B1784,2013-09-12 10:11:00,
2013-09-12 06:16:00,71.9,67.1,29.84,SW,235,1.0,6.0,85,0.00,,,0.00,WeatherCatV1.10B1784,2013-09-12 10:16:00,
2013-09-12 06:21:00,72.0,67.2,29.84,SW,233,2.0,6.0,85,0.00,,,0.00,WeatherCatV1.10B1784,2013-09-12 10:21:00,
2013-09-12 06:26:00,72.2,67.8,29.84,WSW,243,5.0,7.0,86,0.00,,,0.00,WeatherCatV1.10B1784,2013-09-12 10:26:00,
2013-09-12 06:31:00,72.7,68.3,29.83,WSW,244,2.0,5.0,86,0.00,,,0.00,WeatherCatV1.10B1784,2013-09-12 10:31:00,
2013-09-12 06:36:00,72.9,68.1,29.83,WSW,237,4.0,7.0,85,0.00,,,0.00,WeatherCatV1.10B1784,2013-09-12 10:36:00,
2013-09-12 06:41:00,73.0,68.6,29.83,SW,233,4.0,6.0,86,0.00,,,0.00,WeatherCatV1.10B1784,2013-09-12 10:41:00,
2013-09-12 06:46:00,73.0,68.6,29.84,WSW,238,2.0,8.0,86,0.00,,,0.00,WeatherCatV1.10B1784,2013-09-12 10:46:00,
2013-09-12 06:51:00,73.0,68.6,29.83,WSW,241,5.0,6.0,86,0.00,,,0.00,WeatherCatV1.10B1784,2013-09-12 10:51:00,
2013-09-12 06:56:00,73.1,68.7,29.84,WSW,241,3.0,7.0,86,0.00,,,0.00,WeatherCatV1.10B1784,2013-09-12 10:56:00,
2013-09-12 07:01:00,73.3,68.8,29.83,WSW,240,0.0,6.0,86,0.00,,,0.00,WeatherCatV1.10B1784,2013-09-12 11:01:00,
2013-09-12 07:06:00,73.5,69.0,29.83,WSW,240,3.0,8.0,86,0.00,,,0.00,WeatherCatV1.10B1784,2013-09-12 11:06:00,
2013-09-12 07:11:00,73.7,69.2,29.83,SW,235,5.0,6.0,86,0.00,,,0.00,WeatherCatV1.10B1784,2013-09-12 11:11:00,
2013-09-12 07:16:00,73.7,69.2,29.84,SW,232,2.0,2.0,86,0.00,,,0.00,WeatherCatV1.10B1784,2013-09-12 11:16:00,
2013-09-12 07:21:00,73.7,69.2,29.84,SW,228,0.0,7.0,86,0.00,,,0.00,WeatherCatV1.10B1784,2013-09-12 11:21:00,
2013-09-12 07:26:00,73.8,69.3,29.84,SW,232,1.0,5.0,86,0.00,,,0.00,WeatherCatV1.10B1784,2013-09-12 11:26:00,
2013-09-12 07:31:00,73.8,69.7,29.84,SW,233,0.0,4.0,87,0.00,,,0.00,WeatherCatV1.10B1784,2013-09-12 11:31:00,
2013-09-12 07:36:00,73.8,69.7,29.84,SW,233,0.0,3.0,87,0.00,,,0.00,WeatherCatV1.10B1784,2013-09-12 11:36:00,
2013-09-12 07:41:00,73.9,69.8,29.84,SW,232,0.0,4.0,87,0.00,,,0.00,WeatherCatV1.10B1784,2013-09-12 11:41:00,
2013-09-12 07:46:00,73.9,69.8,29.84,SW,232,0.0,0.0,87,0.00,,,0.00,WeatherCatV1.10B1784,2013-09-12 11:46:00,
2013-09-12 07:51:00,73.9,69.8,29.84,SW,231,6.0,6.0,87,0.00,,,0.00,WeatherCatV1.10B1784,2013-09-12 11:51:00,
2013-09-12 07:56:00,74.1,70.0,29.83,WSW,238,0.0,7.0,87,0.00,,,0.00,WeatherCatV1.10B1784,2013-09-12 11:56:00,
2013-09-12 08:01:00,74.5,70.4,29.83,WSW,241,1.0,8.0,87,0.00,,,0.00,WeatherCatV1.10B1784,2013-09-12 12:01:00,
2013-09-12 08:06:00,74.8,70.7,29.83,WSW,237,0.0,6.0,87,0.00,,,0.00,WeatherCatV1.10B1784,2013-09-12 12:06:00,
2013-09-12 08:11:00,75.1,70.6,29.83,SW,236,0.0,5.0,86,0.00,,,0.00,WeatherCatV1.10B1784,2013-09-12 12:11:00,
2013-09-12 08:16:00,75.4,70.9,29.83,SW,223,0.0,6.0,86,0.00,,,0.00,WeatherCatV1.10B1784,2013-09-12 12:16:00,
2013-09-12 08:21:00,75.7,71.2,29.83,SW,223,0.0,4.0,86,0.00,,,0.00,WeatherCatV1.10B1784,2013-09-12 12:21:00,
2013-09-12 08:26:00,76.0,71.2,29.83,WSW,242,4.0,11.0,85,0.00,,,0.00,WeatherCatV1.10B1784,2013-09-12 12:26:00,
2013-09-12 08:31:00,76.4,71.5,29.83,WSW,238,5.0,6.0,85,0.00,,,0.00,WeatherCatV1.10B1784,2013-09-12 12:31:00,
2013-09-12 08:41:00,77.1,71.9,29.82,WSW,241,5.0,6.0,84,0.00,,,0.00,WeatherCatV1.10B1784,2013-09-12 12:41:00,
2013-09-12 08:46:00,77.6,72.4,29.82,WSW,244,3.0,8.0,84,0.00,,,0.00,WeatherCatV1.10B1784,2013-09-12 12:46:00,
2013-09-12 08:51:00,77.8,72.2,29.82,WSW,249,0.0,4.0,83,0.00,,,0.00,WeatherCatV1.10B1784,2013-09-12 12:51:00,
2013-09-12 08:56:00,78.0,72.4,29.82,WSW,248,4.0,8.0,83,0.00,,,0.00,WeatherCatV1.10B1784,2013-09-12 12:56:00,
2013-09-12 09:01:00,78.1,72.5,29.82,SW,235,1.0,8.0,83,0.00,,,0.00,WeatherCatV1.10B1784,2013-09-12 13:01:00,
2013-09-12 09:06:00,78.4,72.4,29.81,SW,232,5.0,8.0,82,0.00,,,0.00,WeatherCatV1.10B1784,2013-09-12 13:06:00,
2013-09-12 09:11:00,78.6,72.6,29.81,SW,231,12.0,12.0,82,0.00,,,0.00,WeatherCatV1.10B1784,2013-09-12 13:11:00,
2013-09-12 09:16:00,78.9,72.9,29.81,SE,140,0.0,7.0,82,0.00,,,0.00,WeatherCatV1.10B1784,2013-09-12 13:16:00,
2013-09-12 09:21:00,79.5,73.1,29.80,SW,228,0.0,2.0,81,0.00,,,0.00,WeatherCatV1.10B1784,2013-09-12 13:21:00,
2013-09-12 09:26:00,79.9,73.2,29.80,SSW,192,4.0,4.0,80,0.00,,,0.00,WeatherCatV1.10B1784,2013-09-12 13:26:00,
2013-09-12 09:31:00,80.0,73.3,29.80,West,267,4.0,6.0,80,0.00,,,0.00,WeatherCatV1.10B1784,2013-09-12 13:31:00,
2013-09-12 09:36:00,80.0,73.3,29.81,SW,223,3.0,6.0,80,0.00,,,0.00,WeatherCatV1.10B1784,2013-09-12 13:36:00,
2013-09-12 09:41:00,80.5,73.4,29.81,NW,325,2.0,4.0,79,0.00,,,0.00,WeatherCatV1.10B1784,2013-09-12 13:41:00,
2013-09-12 09:46:00,80.7,73.6,29.80,West,275,0.0,3.0,79,0.00,,,0.00,WeatherCatV1.10B1784,2013-09-12 13:46:00,
2013-09-12 09:51:00,80.8,73.3,29.80,WSW,240,1.0,2.0,78,0.00,,,0.00,WeatherCatV1.10B1784,2013-09-12 13:51:00,
2013-09-12 09:56:00,81.1,73.6,29.80,WSW,250,3.0,10.0,78,0.00,,,0.00,WeatherCatV1.10B1784,2013-09-12 13:56:00,
2013-09-12 10:01:00,81.0,73.5,29.80,WSW,250,1.0,7.0,78,0.00,,,0.00,WeatherCatV1.10B1784,2013-09-12 14:01:00,
2013-09-12 10:06:00,81.1,73.6,29.80,SSW,198,1.0,9.0,78,0.00,,,0.00,WeatherCatV1.10B1784,2013-09-12 14:06:00,
2013-09-12 10:11:00,81.1,73.2,29.80,WSW,252,5.0,5.0,77,0.00,,,0.00,WeatherCatV1.10B1784,2013-09-12 14:11:00,
2013-09-12 10:16:00,81.2,73.3,29.80,SW,221,6.0,12.0,77,0.00,,,0.00,WeatherCatV1.10B1784,2013-09-12 14:16:00,
2013-09-12 10:21:00,81.0,73.1,29.79,WSW,248,3.0,7.0,77,0.00,,,0.00,WeatherCatV1.10B1784,2013-09-12 14:21:00,
2013-09-12 10:26:00,81.2,73.7,29.79,West,277,1.0,6.0,78,0.00,,,0.00,WeatherCatV1.10B1784,2013-09-12 14:26:00,
2013-09-12 10:31:00,81.4,73.5,29.79,WSW,240,0.0,6.0,77,0.00,,,0.00,WeatherCatV1.10B1784,2013-09-12 14:31:00,
2013-09-12 10:36:00,81.7,73.4,29.79,South,186,0.0,7.0,76,0.00,,,0.00,WeatherCatV1.10B1784,2013-09-12 14:36:00,
2013-09-12 10:41:00,82.0,73.7,29.79,South,171,6.0,8.0,76,0.00,,,0.00,WeatherCatV1.10B1784,2013-09-12 14:41:00,
2013-09-12 10:46:00,82.1,73.8,29.78,South,180,2.0,6.0,76,0.00,,,0.00,WeatherCatV1.10B1784,2013-09-12 14:46:00,
2013-09-12 10:51:00,82.5,74.1,29.78,SSE,151,0.0,3.0,76,0.00,,,0.00,WeatherCatV1.10B1784,2013-09-12 14:51:00,
2013-09-12 10:56:00,82.6,73.4,29.78,West,262,4.0,10.0,74,0.00,,,0.00,WeatherCatV1.10B1784,2013-09-12 14:56:00,
2013-09-12 11:01:00,82.1,73.4,29.78,WSW,257,0.0,7.0,75,0.00,,,0.00,WeatherCatV1.10B1784,2013-09-12 15:01:00,
2013-09-12 11:06:00,82.0,73.7,29.78,West,262,5.0,9.0,76,0.00,,,0.00,WeatherCatV1.10B1784,2013-09-12 15:06:00,
2013-09-12 11:11:00,81.8,73.5,29.78,SW,226,6.0,6.0,76,0.00,,,0.00,WeatherCatV1.10B1784,2013-09-12 15:11:00,
2013-09-12 11:16:00,81.6,73.3,29.78,WSW,257,0.0,15.0,76,0.00,,,0.00,WeatherCatV1.10B1784,2013-09-12 15:16:00,
2013-09-12 11:21:00,81.4,73.9,29.78,South,179,2.0,4.0,78,0.00,,,0.00,WeatherCatV1.10B1784,2013-09-12 15:21:00,
2013-09-12 11:26:00,81.6,73.7,29.78,SW,225,3.0,4.0,77,0.00,,,0.00,WeatherCatV1.10B1784,2013-09-12 15:26:00,
2013-09-12 11:31:00,82.0,74.1,29.77,SW,233,0.0,6.0,77,0.00,,,0.00,WeatherCatV1.10B1784,2013-09-12 15:31:00,
2013-09-12 11:36:00,82.5,74.1,29.77,WSW,244,0.0,6.0,76,0.00,,,0.00,WeatherCatV1.10B1784,2013-09-12 15:36:00,
2013-09-12 11:41:00,82.6,74.2,29.77,SW,226,0.0,6.0,76,0.00,,,0.00,WeatherCatV1.10B1784,2013-09-12 15:41:00,
2013-09-12 11:46:00,83.1,74.7,29.77,WSW,246,13.0,15.0,76,0.00,,,0.00,WeatherCatV1.10B1784,2013-09-12 15:46:00,
2013-09-12 11:51:00,82.7,74.3,29.77,WSW,242,4.0,7.0,76,0.00,,,0.00,WeatherCatV1.10B1784,2013-09-12 15:51:00,
2013-09-12 11:56:00,83.1,74.3,29.76,SSE,166,1.0,7.0,75,0.00,,,0.00,WeatherCatV1.10B1784,2013-09-12 15:56:00,
2013-09-12 12:01:00,83.7,74.9,29.76,West,262,0.0,13.0,75,0.00,,,0.00,WeatherCatV1.10B1784,2013-09-12 16:01:00,
2013-09-12 12:06:00,83.3,74.5,29.76,SE,130,0.0,5.0,75,0.00,,,0.00,WeatherCatV1.10B1784,2013-09-12 16:06:00,
2013-09-12 12:11:00,83.7,74.5,29.75,SE,138,5.0,8.0,74,0.00,,,0.00,WeatherCatV1.10B1784,2013-09-12 16:11:00,
2013-09-12 12:16:00,84.3,75.1,29.75,SSE,159,1.0,5.0,74,0.00,,,0.00,WeatherCatV1.10B1784,2013-09-12 16:16:00,
2013-09-12 12:21:00,84.9,75.3,29.75,SSE,154,0.0,6.0,73,0.00,,,0.00,WeatherCatV1.10B1784,2013-09-12 16:21:00,
2013-09-12 12:26:00,85.3,75.2,29.75,SW,221,4.0,7.0,72,0.00,,,0.00,WeatherCatV1.10B1784,2013-09-12 16:26:00,
2013-09-12 12:31:00,84.4,74.4,29.75,WSW,239,0.0,10.0,72,0.00,,,0.00,WeatherCatV1.10B1784,2013-09-12 16:31:00,
2013-09-12 12:36:00,84.6,75.0,29.75,SSW,199,5.0,10.0,73,0.00,,,0.00,WeatherCatV1.10B1784,2013-09-12 16:36:00,
2013-09-12 12:41:00,84.2,74.6,29.75,SSE,160,0.0,7.0,73,0.00,,,0.00,WeatherCatV1.10B1784,2013-09-12 16:41:00,
2013-09-12 12:46:00,84.0,74.4,29.75,SSE,154,10.0,10.0,73,0.00,,,0.00,WeatherCatV1.10B1784,2013-09-12 16:46:00,
2013-09-12 12:51:00,83.5,74.3,29.75,SSE,150,7.0,9.0,74,0.00,,,0.00,WeatherCatV1.10B1784,2013-09-12 16:51:00,
2013-09-12 12:56:00,83.6,74.4,29.75,South,171,10.0,12.0,74,0.00,,,0.00,WeatherCatV1.10B1784,2013-09-12 16:56:00,
2013-09-12 13:01:00,84.0,74.8,29.74,South,174,5.0,12.0,74,0.00,,,0.00,WeatherCatV1.10B1784,2013-09-12 17:01:00,
2013-09-12 13:06:00,84.0,74.4,29.74,SSE,150,0.0,10.0,73,0.00,,,0.00,WeatherCatV1.10B1784,2013-09-12 17:06:00,
2013-09-12 13:11:00,84.3,75.1,29.74,SW,233,1.0,5.0,74,0.00,,,0.00,WeatherCatV1.10B1784,2013-09-12 17:11:00,
2013-09-12 13:16:00,84.4,74.4,29.74,South,191,2.0,5.0,72,0.00,,,0.00,WeatherCatV1.10B1784,2013-09-12 17:16:00,
2013-09-12 13:21:00,83.2,74.0,29.74,SSE,147,1.0,4.0,74,0.00,,,0.00,WeatherCatV1.10B1784,2013-09-12 17:21:00,
2013-09-12 13:26:00,83.2,74.0,29.73,SE,145,4.0,4.0,74,0.00,,,0.00,WeatherCatV1.10B1784,2013-09-12 17:26:00,
2013-09-12 13:31:00,83.1,74.3,29.73,ESE,111,2.0,8.0,75,0.00,,,0.00,WeatherCatV1.10B1784,2013-09-12 17:31:00,
2013-09-12 13:36:00,83.0,74.6,29.73,South,171,0.0,4.0,76,0.00,,,0.00,WeatherCatV1.10B1784,2013-09-12 17:36:00,
2013-09-12 13:41:00,83.3,74.9,29.72,SE,142,3.0,9.0,76,0.00,,,0.00,WeatherCatV1.10B1784,2013-09-12 17:41:00,
2013-09-12 13:46:00,83.9,75.1,29.72,WSW,244,1.0,4.0,75,0.00,,,0.00,WeatherCatV1.10B1784,2013-09-12 17:46:00,
2013-09-12 13:51:00,84.4,74.4,29.72,South,178,8.0,8.0,72,0.00,,,0.00,WeatherCatV1.10B1784,2013-09-12 17:51:00,
2013-09-12 13:56:00,83.8,74.2,29.71,South,170,7.0,12.0,73,0.00,,,0.00,WeatherCatV1.10B1784,2013-09-12 17:56:00,
2013-09-12 14:01:00,84.0,74.4,29.71,WSW,257,1.0,11.0,73,0.00,,,0.00,WeatherCatV1.10B1784,2013-09-12 18:01:00,
2013-09-12 14:06:00,84.2,73.7,29.70,WSW,257,4.0,11.0,71,0.00,,,0.00,WeatherCatV1.10B1784,2013-09-12 18:06:00,
2013-09-12 14:11:00,84.6,74.6,29.70,SW,235,4.0,8.0,72,0.00,,,0.00,WeatherCatV1.10B1784,2013-09-12 18:11:00,
2013-09-12 14:16:00,84.5,73.6,29.70,SSW,198,1.0,13.0,70,0.00,,,0.00,WeatherCatV1.10B1784,2013-09-12 18:16:00,
2013-09-12 14:21:00,84.8,73.5,29.70,SW,230,5.0,13.0,69,0.00,,,0.00,WeatherCatV1.10B1784,2013-09-12 18:21:00,
2013-09-12 14:26:00,84.8,73.5,29.70,SSE,165,10.0,12.0,69,0.00,,,0.00,WeatherCatV1.10B1784,2013-09-12 18:26:00,
2013-09-12 14:31:00,85.4,73.6,29.69,SW,229,2.0,6.0,68,0.00,,,0.00,WeatherCatV1.10B1784,2013-09-12 18:31:00,
2013-09-12 14:36:00,85.5,73.3,29.68,WSW,242,2.0,7.0,67,0.00,,,0.00,WeatherCatV1.10B1784,2013-09-12 18:36:00,
2013-09-12 14:41:00,85.8,73.1,29.69,West,262,6.0,6.0,66,0.00,,,0.00,WeatherCatV1.10B1784,2013-09-12 18:41:00,
2013-09-12 14:46:00,85.8,72.6,29.69,West,280,2.0,22.0,65,0.00,,,0.00,WeatherCatV1.10B1784,2013-09-12 18:46:00,
2013-09-12 14:51:00,85.3,72.2,29.69,WSW,257,3.0,12.0,65,0.00,,,0.00,WeatherCatV1.10B1784,2013-09-12 18:51:00,
2013-09-12 14:56:00,85.2,72.1,29.69,SSW,205,4.0,5.0,65,0.00,,,0.00,WeatherCatV1.10B1784,2013-09-12 18:56:00,
2013-09-12 15:01:00,86.0,72.8,29.68,West,274,2.0,10.0,65,0.00,,,0.00,WeatherCatV1.10B1784,2013-09-12 19:01:00,
2013-09-12 15:06:00,86.2,72.6,29.68,SSW,194,6.0,10.0,64,0.00,,,0.00,WeatherCatV1.10B1784,2013-09-12 19:06:00,
2013-09-12 15:11:00,85.6,72.0,29.67,SSE,156,4.0,10.0,64,0.00,,,0.00,WeatherCatV1.10B1784,2013-09-12 19:11:00,
2013-09-12 15:16:00,84.4,71.3,29.67,SW,225,2.0,12.0,65,0.00,,,0.00,WeatherCatV1.10B1784,2013-09-12 19:16:00,
2013-09-12 15:21:00,83.6,71.5,29.67,WSW,257,1.0,10.0,67,0.00,,,0.00,WeatherCatV1.10B1784,2013-09-12 19:21:00,
2013-09-12 15:26:00,83.3,71.6,29.67,West,267,0.0,6.0,68,0.00,,,0.00,WeatherCatV1.10B1784,2013-09-12 19:26:00,
2013-09-12 15:31:00,83.4,71.7,29.66,SE,139,9.0,10.0,68,0.00,,,0.00,WeatherCatV1.10B1784,2013-09-12 19:31:00,
2013-09-12 15:36:00,83.8,71.6,29.67,SW,231,3.0,4.0,67,0.00,,,0.00,WeatherCatV1.10B1784,2013-09-12 19:36:00,
2013-09-12 15:41:00,84.3,72.6,29.67,WSW,248,0.0,1.0,68,0.00,,,0.00,WeatherCatV1.10B1784,2013-09-12 19:41:00,
2013-09-12 15:46:00,84.8,72.1,29.67,SW,218,2.0,13.0,66,0.00,,,0.00,WeatherCatV1.10B1784,2013-09-12 19:46:00,
2013-09-12 15:51:00,83.7,70.7,29.67,SE,130,10.0,15.0,65,0.00,,,0.00,WeatherCatV1.10B1784,2013-09-12 19:51:00,
2013-09-12 15:56:00,82.9,71.2,29.67,WSW,241,7.0,8.0,68,0.00,,,0.00,WeatherCatV1.10B1784,2013-09-12 19:56:00,
2013-09-12 16:01:00,82.5,71.3,29.66,WSW,257,3.0,6.0,69,0.00,,,0.00,WeatherCatV1.10B1784,2013-09-12 20:01:00,
2013-09-12 16:06:00,82.6,70.9,29.66,SW,225,0.0,4.0,68,0.00,,,0.00,WeatherCatV1.10B1784,2013-09-12 20:06:00,
2013-09-12 16:11:00,83.3,71.6,29.66,ESE,107,0.0,4.0,68,0.00,,,0.00,WeatherCatV1.10B1784,2013-09-12 20:11:00,
2013-09-12 16:16:00,83.3,71.2,29.66,WSW,244,5.0,7.0,67,0.00,,,0.00,WeatherCatV1.10B1784,2013-09-12 20:16:00,
2013-09-12 16:21:00,82.8,71.6,29.65,SW,227,3.0,4.0,69,0.00,,,0.00,WeatherCatV1.10B1784,2013-09-12 20:21:00,
2013-09-12 16:26:00,82.4,71.6,29.66,East,99,2.0,2.0,70,0.00,,,0.00,WeatherCatV1.10B1784,2013-09-12 20:26:00,
2013-09-12 16:31:00,82.1,71.3,29.65,WSW,257,4.0,8.0,70,0.00,,,0.00,WeatherCatV1.10B1784,2013-09-12 20:31:00,
2013-09-12 16:36:00,81.6,71.3,29.65,West,275,0.0,3.0,71,0.00,,,0.00,WeatherCatV1.10B1784,2013-09-12 20:36:00,
2013-09-12 16:41:00,81.7,71.4,29.65,West,267,4.0,4.0,71,0.00,,,0.00,WeatherCatV1.10B1784,2013-09-12 20:41:00,
2013-09-12 16:46:00,81.6,71.7,29.65,SE,136,11.0,11.0,72,0.00,,,0.00,WeatherCatV1.10B1784,2013-09-12 20:46:00,
2013-09-12 16:51:00,81.4,71.5,29.64,WSW,257,2.0,10.0,72,0.00,,,0.00,WeatherCatV1.10B1784,2013-09-12 20:51:00,
2013-09-12 16:56:00,81.4,71.5,29.64,SE,142,1.0,5.0,72,0.00,,,0.00,WeatherCatV1.10B1784,2013-09-12 20:56:00,
2013-09-12 17:01:00,81.4,71.9,29.64,West,267,4.0,6.0,73,0.00,,,0.00,WeatherCatV1.10B1784,2013-09-12 21:01:00,
2013-09-12 17:06:00,81.0,71.5,29.65,SSE,160,0.0,7.0,73,0.00,,,0.00,WeatherCatV1.10B1784,2013-09-12 21:06:00,
2013-09-12 17:11:00,80.6,71.5,29.65,South,183,0.0,6.0,74,0.00,,,0.00,WeatherCatV1.10B1784,2013-09-12 21:11:00,
2013-09-12 17:16:00,80.4,71.7,29.65,SSW,193,0.0,3.0,75,0.00,,,0.00,WeatherCatV1.10B1784,2013-09-12 21:16:00,
2013-09-12 17:21:00,80.2,71.5,29.65,SE,146,3.0,4.0,75,0.00,,,0.00,WeatherCatV1.10B1784,2013-09-12 21:21:00,
2013-09-12 17:26:00,80.2,71.5,29.65,WSW,246,3.0,4.0,75,0.00,,,0.00,WeatherCatV1.10B1784,2013-09-12 21:26:00,
2013-09-12 17:31:00,80.1,71.8,29.64,SSW,202,0.0,3.0,76,0.00,,,0.00,WeatherCatV1.10B1784,2013-09-12 21:31:00,
2013-09-12 17:36:00,80.1,71.8,29.65,SW,226,1.0,4.0,76,0.00,,,0.00,WeatherCatV1.10B1784,2013-09-12 21:36:00,
2013-09-12 17:41:00,80.1,71.8,29.65,SW,223,0.0,0.0,76,0.00,,,0.00,WeatherCatV1.10B1784,2013-09-12 21:41:00,
2013-09-12 17:46:00,79.9,72.0,29.65,SW,231,0.0,5.0,77,0.00,,,0.00,WeatherCatV1.10B1784,2013-09-12 21:46:00,
2013-09-12 17:51:00,79.6,71.7,29.65,WSW,244,0.0,2.0,77,0.00,,,0.00,WeatherCatV1.10B1784,2013-09-12 21:51:00,
2013-09-12 17:56:00,79.5,72.0,29.65,WSW,244,1.0,5.0,78,0.00,,,0.00,WeatherCatV1.10B1784,2013-09-12 21:56:00,
2013-09-12 18:01:00,79.5,72.0,29.65,SSE,150,6.0,6.0,78,0.00,,,0.00,WeatherCatV1.10B1784,2013-09-12 22:01:00,
2013-09-12 18:06:00,79.4,71.9,29.65,SSE,154,5.0,7.0,78,0.00,,,0.00,WeatherCatV1.10B1784,2013-09-12 22:06:00,
2013-09-12 18:11:00,79.3,72.2,29.65,WSW,251,0.0,6.0,79,0.00,,,0.00,WeatherCatV1.10B1784,2013-09-12 22:11:00,
2013-09-12 18:16:00,79.1,72.0,29.64,SW,219,0.0,1.0,79,0.00,,,0.00,WeatherCatV1.10B1784,2013-09-12 22:16:00,
2013-09-12 18:21:00,79.0,71.9,29.64,WSW,247,5.0,5.0,79,0.00,,,0.00,WeatherCatV1.10B1784,2013-09-12 22:21:00,
2013-09-12 18:26:00,78.7,72.0,29.63,South,175,0.0,4.0,80,0.00,,,0.00,WeatherCatV1.10B1784,2013-09-12 22:26:00,
2013-09-12 18:31:00,78.5,71.8,29.63,West,274,1.0,6.0,80,0.00,,,0.00,WeatherCatV1.10B1784,2013-09-12 22:31:00,
2013-09-12 18:36:00,78.3,71.6,29.63,SSW,202,0.0,0.0,80,0.00,,,0.00,WeatherCatV1.10B1784,2013-09-12 22:36:00,
2013-09-12 18:41:00,78.2,71.9,29.62,ESE,123,0.0,0.0,81,0.00,,,0.00,WeatherCatV1.10B1784,2013-09-12 22:41:00,
2013-09-12 18:46:00,77.9,71.6,29.63,ESE,123,0.0,0.0,81,0.00,,,0.00,WeatherCatV1.10B1784,2013-09-12 22:46:00,
2013-09-12 18:51:00,77.7,71.8,29.63,South,174,0.0,5.0,82,0.00,,,0.00,WeatherCatV1.10B1784,2013-09-12 22:51:00,
2013-09-12 18:56:00,77.6,71.7,29.63,SSW,211,0.0,0.0,82,0.00,,,0.00,WeatherCatV1.10B1784,2013-09-12 22:56:00,
2013-09-12 19:01:00,77.5,71.6,29.62,SSW,196,0.0,7.0,82,0.00,,,0.00,WeatherCatV1.10B1784,2013-09-12 23:01:00,
2013-09-12 19:06:00,77.3,71.7,29.62,SSW,211,1.0,2.0,83,0.00,,,0.00,WeatherCatV1.10B1784,2013-09-12 23:06:00,
2013-09-12 19:11:00,77.0,71.4,29.62,SE,131,3.0,6.0,83,0.00,,,0.00,WeatherCatV1.10B1784,2013-09-12 23:11:00,
2013-09-12 19:16:00,76.8,71.2,29.62,SE,131,0.0,0.0,83,0.00,,,0.00,WeatherCatV1.10B1784,2013-09-12 23:16:00,
2013-09-12 19:21:00,76.7,71.5,29.62,SSE,150,0.0,0.0,84,0.00,,,0.00,WeatherCatV1.10B1784,2013-09-12 23:21:00,
2013-09-12 19:26:00,76.6,71.4,29.63,SSW,213,0.0,2.0,84,0.00,,,0.00,WeatherCatV1.10B1784,2013-09-12 23:26:00,
2013-09-12 19:31:00,76.5,71.6,29.63,SSE,156,0.0,0.0,85,0.00,,,0.00,WeatherCatV1.10B1784,2013-09-12 23:31:00,
2013-09-12 19:36:00,76.3,71.4,29.63,SSE,162,0.0,2.0,85,0.00,,,0.00,WeatherCatV1.10B1784,2013-09-12 23:36:00,
2013-09-12 19:41:00,76.2,71.3,29.63,SSE,163,0.0,0.0,85,0.00,,,0.00,WeatherCatV1.10B1784,2013-09-12 23:41:00,
2013-09-12 19:46:00,76.0,71.5,29.63,SSE,163,0.0,3.0,86,0.00,,,0.00,WeatherCatV1.10B1784,2013-09-12 23:46:00,
2013-09-12 19:51:00,75.9,71.4,29.64,SSE,161,0.0,4.0,86,0.00,,,0.00,WeatherCatV1.10B1784,2013-09-12 23:51:00,
2013-09-12 19:56:00,75.7,71.2,29.64,SW,219,3.0,4.0,86,0.00,,,0.00,WeatherCatV1.10B1784,2013-09-12 23:56:00,
2013-09-12 20:01:00,75.6,71.4,29.65,SW,232,0.0,2.0,87,0.00,,,0.00,WeatherCatV1.10B1784,2013-09-13 00:01:00,
2013-09-12 20:06:00,74.9,67.9,29.66,West,279,1.0,5.0,79,0.00,,,0.00,WeatherCatV1.10B1784,2013-09-13 00:06:00,
2013-09-12 20:11:00,73.9,67.0,29.66,WNW,286,0.0,5.0,79,0.00,,,0.00,WeatherCatV1.10B1784,2013-09-13 00:11:00,
2013-09-12 20:16:00,72.8,66.3,29.65,WNW,300,0.0,4.0,80,0.00,,,0.00,WeatherCatV1.10B1784,2013-09-13 00:16:00,
2013-09-12 20:21:00,71.8,66.3,29.65,NNE,30,0.0,1.0,83,0.00,,,0.00,WeatherCatV1.10B1784,2013-09-13 00:21:00,
2013-09-12 20:26:00,71.1,66.0,29.65,WNW,286,0.0,5.0,84,0.00,,,0.00,WeatherCatV1.10B1784,2013-09-13 00:26:00,
2013-09-12 20:31:00,70.0,66.3,29.65,WNW,286,0.0,0.0,88,0.64,,,0.04,WeatherCatV1.10B1784,2013-09-13 00:31:00,
2013-09-12 20:36:00,69.2,65.8,29.65,WNW,288,0.0,0.0,89,0.54,,,0.07,WeatherCatV1.10B1784,2013-09-13 00:36:00,
2013-09-12 20:41:00,69.0,66.3,29.65,WNW,288,0.0,0.0,91,0.12,,,0.08,WeatherCatV1.10B1784,2013-09-13 00:41:00,
2013-09-12 20:46:00,68.8,66.1,29.65,WNW,288,0.0,1.0,91,0.17,,,0.10,WeatherCatV1.10B1784,2013-09-13 00:46:00,
2013-09-12 20:51:00,68.6,66.2,29.65,WNW,288,0.0,0.0,92,0.22,,,0.12,WeatherCatV1.10B1784,2013-09-13 00:51:00,
2013-09-12 20:56:00,68.4,66.0,29.65,WNW,288,0.0,0.0,92,0.12,,,0.13,WeatherCatV1.10B1784,2013-09-13 00:56:00,
2013-09-12 21:01:00,68.0,65.6,29.65,WNW,288,0.0,0.0,92,0.19,,,0.14,WeatherCatV1.10B1784,2013-09-13 01:01:00,
2013-09-12 21:06:00,67.8,65.7,29.65,WNW,288,0.0,0.0,93,0.70,,,0.16,WeatherCatV1.10B1784,2013-09-13 01:06:00,
2013-09-12 21:11:00,67.8,65.7,29.66,WNW,288,0.0,0.0,93,0.13,,,0.18,WeatherCatV1.10B1784,2013-09-13 01:11:00,
2013-09-12 21:16:00,67.7,65.6,29.66,WNW,288,0.0,0.0,93,0.18,,,0.20,WeatherCatV1.10B1784,2013-09-13 01:16:00,
2013-09-12 21:21:00,67.6,65.5,29.65,WNW,288,0.0,0.0,93,0.07,,,0.20,WeatherCatV1.10B1784,2013-09-13 01:21:00,
2013-09-12 21:26:00,67.6,65.8,29.65,WNW,288,0.0,0.0,94,0.04,,,0.20,WeatherCatV1.10B1784,2013-09-13 01:26:00,
2013-09-12 21:31:00,67.4,65.6,29.65,WNW,288,0.0,0.0,94,0.00,,,0.20,WeatherCatV1.10B1784,2013-09-13 01:31:00,
2013-09-12 21:36:00,67.4,65.6,29.64,WNW,288,0.0,0.0,94,0.00,,,0.20,WeatherCatV1.10B1784,2013-09-13 01:36:00,
2013-09-12 21:41:00,67.3,65.5,29.64,WNW,288,0.0,0.0,94,0.00,,,0.21,WeatherCatV1.10B1784,2013-09-13 01:41:00,
2013-09-12 21:46:00,67.3,65.5,29.63,WNW,288,0.0,0.0,94,0.00,,,0.21,WeatherCatV1.10B1784,2013-09-13 01:46:00,
2013-09-12 21:51:00,67.3,65.5,29.63,WNW,288,0.0,0.0,94,0.05,,,0.22,WeatherCatV1.10B1784,2013-09-13 01:51:00,
2013-09-12 21:56:00,67.3,65.5,29.64,WNW,288,0.0,1.0,94,0.05,,,0.22,WeatherCatV1.10B1784,2013-09-13 01:56:00,
2013-09-12 22:01:00,67.2,65.4,29.66,WNW,288,0.0,0.0,94,0.52,,,0.26,WeatherCatV1.10B1784,2013-09-13 02:01:00,
2013-09-12 22:06:00,67.1,65.3,29.64,WNW,288,0.0,0.0,94,1.03,,,0.34,WeatherCatV1.10B1784,2013-09-13 02:06:00,
2013-09-12 22:11:00,67.1,65.3,29.64,WNW,288,0.0,0.0,94,0.65,,,0.42,WeatherCatV1.10B1784,2013-09-13 02:11:00,
2013-09-12 22:16:00,67.1,65.3,29.65,WNW,288,0.0,0.0,94,0.28,,,0.46,WeatherCatV1.10B1784,2013-09-13 02:16:00,
2013-09-12 22:21:00,66.8,65.3,29.65,WNW,288,0.0,4.0,95,0.09,,,0.46,WeatherCatV1.10B1784,2013-09-13 02:21:00,
2013-09-12 22:26:00,66.8,65.3,29.66,WNW,288,0.0,1.0,95,0.05,,,0.46,WeatherCatV1.10B1784,2013-09-13 02:26:00,
2013-09-12 22:31:00,66.8,65.3,29.67,WNW,288,0.0,1.0,95,0.00,,,0.46,WeatherCatV1.10B1784,2013-09-13 02:31:00,
2013-09-12 22:36:00,66.7,64.9,29.66,WNW,288,0.0,0.0,94,0.00,,,0.46,WeatherCatV1.10B1784,2013-09-13 02:36:00,
2013-09-12 22:41:00,66.7,64.9,29.66,WNW,288,0.0,0.0,94,0.00,,,0.46,WeatherCatV1.10B1784,2013-09-13 02:41:00,
2013-09-12 22:46:00,66.6,65.1,29.66,WNW,288,0.0,0.0,95,0.00,,,0.46,WeatherCatV1.10B1784,2013-09-13 02:46:00,
2013-09-12 22:51:00,66.7,65.2,29.65,WNW,288,0.0,0.0,95,0.00,,,0.46,WeatherCatV1.10B1784,2013-09-13 02:51:00,
2013-09-12 22:56:00,66.7,65.2,29.64,WNW,288,0.0,0.0,95,0.00,,,0.46,WeatherCatV1.10B1784,2013-09-13 02:56:00,
2013-09-12 23:01:00,66.7,65.2,29.64,WNW,288,0.0,0.0,95,0.00,,,0.46,WeatherCatV1.10B1784,2013-09-13 03:01:00,
2013-09-12 23:06:00,66.8,65.3,29.64,WNW,288,0.0,0.0,95,0.00,,,0.46,WeatherCatV1.10B1784,2013-09-13 03:06:00,
2013-09-12 23:11:00,66.8,65.3,29.62,WNW,288,0.0,0.0,95,0.00,,,0.46,WeatherCatV1.10B1784,2013-09-13 03:11:00,
2013-09-12 23:16:00,66.6,65.1,29.62,WNW,288,0.0,0.0,95,0.00,,,0.46,WeatherCatV1.10B1784,2013-09-13 03:16:00,
2013-09-12 23:21:00,66.4,64.9,29.62,WNW,288,0.0,0.0,95,0.00,,,0.46,WeatherCatV1.10B1784,2013-09-13 03:21:00,
2013-09-12 23:26:00,66.3,64.8,29.62,WNW,288,0.0,0.0,95,0.00,,,0.46,WeatherCatV1.10B1784,2013-09-13 03:26:00,
2013-09-12 23:31:00,66.3,64.8,29.62,WNW,288,0.0,0.0,95,0.00,,,0.46,WeatherCatV1.10B1784,2013-09-13 03:31:00,
2013-09-12 23:36:00,66.3,64.8,29.61,WNW,288,0.0,0.0,95,0.00,,,0.46,WeatherCatV1.10B1784,2013-09-13 03:36:00,
2013-09-12 23:41:00,66.3,64.8,29.61,WNW,288,0.0,0.0,95,0.00,,,0.46,WeatherCatV1.10B1784,2013-09-13 03:41:00,
2013-09-12 23:46:00,66.3,64.8,29.61,WNW,288,0.0,0.0,95,0.00,,,0.46,WeatherCatV1.10B1784,2013-09-13 03:46:00,
2013-09-12 23:51:00,66.3,64.8,29.61,WNW,288,0.0,0.0,95,0.00,,,0.46,WeatherCatV1.10B1784,2013-09-13 03:51:00,
2013-09-12 23:56:00,66.2,64.7,29.62,WNW,288,0.0,0.0,95,0.00,,,0.46,WeatherCatV1.10B1784,2013-09-13 03:56:00,